Погода в Сигулде

Латвия     57°09′23″N   24°51′02″E
В апреле 2022 года жителям России запретили посещать сайт meteo.paraplan.net по решению Генеральной прокуратуры. Аудитория сайта уменьшилась в 10 раз. Владельцы сайта не видят смысла в поддержке погодного сервера в таких условиях. Сайт будет закрыт в октябре.
темп.,
°C
ветер,
м/с
пор.,
м/с
влажн.,
%
обл.,
%
осадки,
мм/ч
давл.,
гПа
погр.,
м
26 сентября, пн
пн2600:00+6ююз119352 0.0 100910
03:00+6ююв119372 0.0 100818
06:00+7ююв238399 0.0 100876
09:00+9ююв257643 0.0 1007207
12:00+14ю346018 0.1 1007944
15:00+16ю354881 0.4 10071822
18:00+13юв2661100 0.1 1007175
21:00+12юв3868100 0.1 1007230
27 сентября, вт
вт2700:00+9юв398662 0.0 1007190
03:00+11юв2875100 0.0 1007255
06:00+10юв277584 0.0 1007211
09:00+10вюв387710 0.0 1007283
12:00+15юв46535 0.0 10071008
15:00+17вюв464639 0.0 10061864
18:00+14вюв376098 0.0 1006423
21:00+12в3976100 0.2 1006385
28 сентября, ср
ср2800:00+11в3975100 0.1 1006407
03:00+10в3881100 0.2 1006345
06:00+9в3989100 0.9 1005340
09:00+9в3990100 1.3 1004402
12:00+12в487599 0.1 1004727
15:00+14вюв4762100 0.6 10021226
18:00+12вюв4967100 0.5 1002452
21:00+10в41275100 0.6 1003491
29 сентября, чт
чт2900:00+10в41275100 0.4 1003690
03:00+10юв5979100 0.5 1004736
06:00+8юв39977 0.0 1005287
09:00+9юв4108599 0.0 1006414
12:00+11юв41170100 0.1 1006752
15:00+11ююв51074100 0.3 1006885
18:00+10юв41094100 2.4 1007638
21:00+10ююв4995100 3.9 1007597
30 сентября, пт
пт3000:00+10ююв3897100 1.0 1008460
03:00+10ю2697100 1.2 1008353
06:00+9ю259586 0.0 1009336
09:00+9ю3895100 0.0 1011316
12:00+13ююз477315 0.0 1011674
15:00+15ююз585236 0.0 10111775
18:00+13ю4957100 0.0 1011637
21:00+11ююз4127764 0.5 1012855